Location: *
(17.3280°S, 114.7300°W)
Time: 10:20:48
(UTC+00:00)

Envisat - Pass Details

Date: 05 November 2020
Orbit: 764 x 766 km, 98.1° (Epoch: 28 November)

Event Time Altitude Azimuth Distance (km) Brightness Sun altitude
Rises 11:45:34 0° 60° (ENE) 3,219 6.8 -17.2°
Reaches altitude 10° 11:50:05 10° 98° (E) 2,304 6.7 -16.2°
Maximum altitude 11:51:04 11° 109° (ESE) 2,269 6.8 -16.0°
Drops below altitude 10° 11:52:03 10° 120° (ESE) 2,309 6.8 -15.8°
Sets 11:56:34 0° 158° (SSE) 3,245 7.0 -14.8°
